METAR Formatted Surface Weather Observation
Issued by NWS

Home | Current Version | Previous Version | Text Only | Print | Product List | Glossary On
Versions: 1 2 3 4 5 6 7 8 9 10 11 12 13 14 15 16 17 18 19 20 21 22 23 24 25 26 27 28 29 30 31 32 33 34 35 36 37 38 39 40 41 42 43 44 45 46 47 48 49 50
850
SAUS44 KFWD 290559
MTRNQI
METAR KNQI 290556Z AUTO 14019G25KT 6SM BR BKN015 OVC021 27/25 A2958
RMK AO2 PK WND 15031/0515 SLP014 T02670250 10317 20261 403830228
50006



USA.gov is the U.S. government's official web portal to all federal, state and local government web resources and services.